AirNav   Air Wisconsin Up To $57,000 Bonus
 
 864 users online  

0LA9 Rebel Field Airport
Walker, Louisiana, USA

GOING TO WALKER?


FAA INFORMATION EFFECTIVE 11 AUGUST 2022

Location

FAA Identifier: 0LA9
Lat/Long: 30-35-10.6700N 090-51-41.3500W
30-35.177833N 090-51.689167W
30.5862972,-90.8614861
(estimated)
Elevation: 74 ft. / 23 m (estimated)
Variation: 02E (2000)
From city: 6 miles N of WALKER, LA
Time zone: UTC -5 (UTC -6 during Standard Time)
Zip code: 70785

Airport Operations

Airport use: Private use. Permission required prior to landing
Activation date: 11/2000
Control tower: no
ARTCC: HOUSTON CENTER
FSS: DE RIDDER FLIGHT SERVICE STATION
Attendance: UNATNDD
Segmented circle: no

Airport Communications

WX ASOS at BTR (15 nm W): PHONE 225-354-2138

Nearby radio navigation aids

VOR radial/distance  VOR name  Freq  Var
LSUr069/23.2FIGHTING TIGER VORTAC116.5006E
RQRr333/33.1RESERVE VOR/DME110.8002E

Airport Services

Runway Information

Runway 17/35

Dimensions: 3600 x 100 ft. / 1097 x 30 m
Surface: turf
RUNWAY 17  RUNWAY 35
Traffic pattern: leftleft

Airport Ownership and Management from official FAA records

Ownership: Privately-owned
Owner: PRENTICE D. MOORE
13599 SPRINGFIELD RD
WALKER, LA 70785
Phone 225-235-6353
Manager: PRENTICE D. MOORE
13599 SPRINGFIELD RD
WALKER, LA 70785
Phone 225-235-6353
EMAIL: REBELFIELDAIRPORT@GMAIL.COM

Airport Operational Statistics

Aircraft based on the field: 3
Single engine airplanes: 3
    

Additional Remarks

FOR CD CTC LAFAYETTE APCH AT 337-262-2729, WHEN APCH CLSD CTC HOUSTON ARTCC AT 281-230-5622.

Instrument Procedures

There are no published instrument procedures at 0LA9.

Some nearby airports with instrument procedures:

KBTR - Baton Rouge Metropolitan Airport, Ryan Field (15 nm W)
KHDC - Hammond Northshore Regional Airport (23 nm E)
KREG - Louisiana Regional Airport (25 nm S)
KHZR - False River Regional Airport (33 nm W)
KAPS - Port of South Louisiana Executive Regional Airport (33 nm SE)
 
Loc | Ops | Rwys | IFR | FBO | Links
Com | Nav | Svcs | Stats | Notes
Area around 0LA9 (Rebel Field Airport)
 
Road maps at: MapQuest Bing Google
 
Aerial photo
WARNING: Photo may not be current or correct
Aerial photo of 0LA9 (Rebel Field Airport)
Photo taken 01-Jan-2011
looking southeast.

Do you have a better or more recent aerial photo of Rebel Field Airport that you would like to share? If so, please send us your photo.

 
Sectional chart

 
Airport distance calculator
Flying to Rebel Field Airport? Find the distance to fly.

From to 0LA9

Sunrise and sunset
Times for 16-Aug-2022
 Local
(UTC-5)
 Zulu
(UTC)
Morning civil twilight06:0611:06
Sunrise06:3211:32
Sunset19:4400:44
Evening civil twilight20:0901:09

Current date and time
Zulu (UTC)  17-Aug-2022 04:12:19
Local (UTC-5)  16-Aug-2022 23:12:19
 
METAR
KBTR 
15nm W 
170353Z 00000KT 10SM CLR 28/26 A2994 RMK AO2 SLP137 T02830256
KHDC 
23nm E 
170401Z AUTO 07006KT 10SM CLR 27/23 A2997 RMK AO2 LTG DSNT SE
KREG 
25nm S 
170355Z AUTO 00000KT 10SM SCT041 SCT050 28/26 A2995 RMK AO2 T02750255
TAF
KBTR 
15nm W 
161738Z 1618/1718 28007KT P6SM FEW030 FM170200 00000KT P6SM SCT025
NOTAMs
Click for the latest NOTAMs
NOTAMs are issued by the DoD/FAA and will open in a separate window not controlled by AirNav.

 

 
 

Would you like to see your business listed on this page?

 If your business provides an interesting product or service to pilots, flight crews, aircraft, or users of the Rebel Field Airport, you should consider listing it here.  To start the listing process, click on the button below
 
Add a business
 

Other Pages about Rebel Field Airport

Update a link
 
Copyright © AirNav, LLC. All rights reserved. Privacy Policy  Contact